Location: Street
(51.1247°N, 2.7429°W)
Time: 10:41:09
(UTC+00:00)

BlueWalker 3 - Visible Passes

Search period start: 28 November 2022 00:00
Search period end: 08 December 2022 00:00
Orbit: 500 x 519 km, 53.2° (Epoch: 27 November)

Date Brightness Start Highest point End Pass type
(mag) Time Alt. Az. Time Alt. Az. Time Alt. Az.
28 Nov 2.3 17:10:50 10° SW 17:14:40 54° SSE 17:17:47 15° ENE visible
28 Nov 2.6 18:49:26 10° W 18:52:36 53° WNW 18:52:36 53° WNW visible
29 Nov 2.3 16:52:27 10° SW 16:56:18 56° SSE 17:00:08 10° ENE visible
29 Nov 2.0 18:31:06 10° W 18:34:58 66° N 18:34:58 66° N visible
30 Nov 2.0 18:12:44 10° W 18:16:39 66° N 18:17:19 53° NE visible
30 Nov 5.1 19:51:38 10° WNW 19:52:08 13° WNW 19:52:08 13° WNW visible
01 Dec 2.0 17:54:23 10° W 17:58:17 65° N 17:59:39 37° ENE visible
01 Dec 4.6 19:33:16 10° WNW 19:34:29 19° WNW 19:34:29 19° WNW visible
02 Dec 2.1 17:36:01 10° W 17:39:56 64° N 17:42:00 26° ENE visible
02 Dec 3.9 19:14:54 10° WNW 19:16:50 28° WNW 19:16:50 28° WNW visible
03 Dec 2.1 17:17:39 10° W 17:21:34 64° N 17:24:22 18° ENE visible
03 Dec 3.1 18:56:31 10° WNW 18:59:12 42° WNW 18:59:12 42° WNW visible
04 Dec 2.1 16:59:16 10° W 17:03:11 63° N 17:06:46 12° ENE visible
04 Dec 2.2 18:38:08 10° WNW 18:41:35 67° WNW 18:41:35 67° WNW visible
05 Dec 2.1 16:40:53 10° W 16:44:48 63° N 16:48:41 10° E visible
05 Dec 1.8 18:19:44 10° WNW 18:23:40 86° NNE 18:24:02 72° E visible
05 Dec 5.3 19:58:38 10° W 19:58:52 11° W 19:58:52 11° W visible
06 Dec 1.8 18:01:20 10° WNW 18:05:17 88° NNE 18:06:33 41° ESE visible
06 Dec 4.8 19:40:16 10° W 19:41:23 17° W 19:41:23 17° W visible
07 Dec 1.9 17:42:56 10° WNW 17:46:53 89° SSE 17:49:09 24° ESE visible
07 Dec 4.2 19:21:52 10° W 19:24:00 23° WSW 19:24:00 23° WSW visible
